STARLINK-1524, 46047

Orbit data source: Space-Track

STARLINK-1524, 46047 is a payload satellite owned by SpaceX/Seattle (US) in LEO that was launched on Fri, 07 Aug 2020 UTC via an FALCON 9 launch vehicle from the Air Force Eastern Test Range (AFETR). Payload-class satellites include a variety of spacecraft equipped with specific instruments for various scientific and technological missions. These include communications satellites like Starlink; space stations such as the ISS; scientific satellites like the Hubble; Earth observation satellites from companies like Planet Labs, Umbra, and HawkEye 360; GPS; miniature CubeSats for education and research; and military/defense satellites.

Loading next visibility...
Identifier
46047, 2020-055W
Orbit
LEO
Country
Flag of USUS
Related business
Manufacturer
SpaceX/Seattle
Mission
Operational Commercial Communications
Bus & Motor
STARLINK, Unknown motor
Mass
260 kg wet, ~248 kg dry
Launch date (UTC)
2020-08-07 (6 years ago)
Launch vehicle
FALCON 9
Launch site
Air Force Eastern Test Range (AFETR)
Object type
Payload
Rocket body
Debris
Shape & HBR
Box + 1 Pan, 10.1 m
Radar Cross Section
13.562 m², Large (>1 m²)

Expand to show TLE details & history
Last TLE update: 1 day ago

TLE from 1 day ago
0 STARLINK-1524
1 46047U 20055W   26170.81996343  .00000832  00000-0  38573-4 0  9995
2 46047  53.1600 358.8937 0001043 104.5157 255.5960 15.31701061324716
Epoch: 2026-06-19T19:40Z
TLE epoch observation values (Epoch: 2026-06-19T19:40:44.840Z)
Latitude
-0.00003°
Longitude
155.66339°
Altitude
471.815 km
Speed
7.631 km/s
True Right ascension
23h 55m 34s
True Declination
0° 00' 00"
Sunlit
Object was in daylight at epoch
Visualization orbit readout
Latitude
Unknown
Longitude
Unknown
Altitude
Unknown
Speed
Unknown
Apparent Right ascension
Unknown
Apparent Declination
Unknown
Sunlit
N/A
Visualization observer readout
Local Sidereal Time
06:44:40
Azimuth
Unknown
Elevation
Unknown
Doppler factor
Unknown
Orbital elements
Apogee altitude
471.708 km
Perigee altitude
470.279 km
Semi-major axis
6,849.13 km
Eccentricity
0.0001
Inclination
53.16°
RAAN
358.8937°
Arg. of periapsis
104.5157°
True anomaly
255.58442°
Mean anomaly
255.596°
Eccentric anomaly
255.59021°
Mean motion
3.82904 °/min
Orbital period
94.02 mins
BSTAR
0.000038573
Loading maneuver chart data...
Computing Atmospheric mass density...

Documentation

Showing up to 5 results
|